TimeMST,TemperatureF,Dew PointF,Humidity,Sea Level PressureIn,VisibilityMPH,Wind Direction,Wind SpeedMPH,Gust SpeedMPH,PrecipitationIn,Events,Conditions,WindDirDegrees,DateUTC
12:53 AM,25.0,8.1,49,30.23,10.0,WSW,6.9,-,N/A,,Clear,250,2012-12-04 07:53:00
1:53 AM,25.0,8.1,49,30.25,10.0,WSW,6.9,-,N/A,,Clear,250,2012-12-04 08:53:00
2:53 AM,25.0,8.1,49,30.26,10.0,West,6.9,-,N/A,,Clear,260,2012-12-04 09:53:00
3:53 AM,24.1,8.1,51,30.28,10.0,WSW,6.9,-,N/A,,Clear,250,2012-12-04 10:53:00
4:53 AM,25.0,8.1,49,30.32,10.0,WSW,8.1,-,N/A,,Clear,250,2012-12-04 11:53:00
5:53 AM,24.1,8.1,51,30.37,10.0,West,5.8,-,N/A,,Clear,270,2012-12-04 12:53:00
6:53 AM,19.9,8.1,60,30.44,10.0,NNW,9.2,-,N/A,,Clear,330,2012-12-04 13:53:00
7:53 AM,28.0,10.9,49,30.42,10.0,West,8.1,-,N/A,,Clear,280,2012-12-04 14:53:00
8:53 AM,39.9,14.0,35,30.43,10.0,West,8.1,-,N/A,,Clear,280,2012-12-04 15:53:00
9:53 AM,48.9,16.0,27,30.40,10.0,WNW,3.5,-,N/A,,Clear,290,2012-12-04 16:53:00
10:53 AM,53.6,15.8,22,30.34,10.0,Variable,3.5,-,N/A,,Clear,0,2012-12-04 17:53:00
11:53 AM,55.9,16.0,21,30.33,10.0,WSW,10.4,-,N/A,,Clear,250,2012-12-04 18:53:00
12:53 PM,57.0,12.9,18,30.30,10.0,SW,10.4,-,N/A,,Clear,220,2012-12-04 19:53:00
1:53 PM,59.0,7.0,13,30.27,10.0,SSW,13.8,-,N/A,,Clear,210,2012-12-04 20:53:00
2:53 PM,57.0,8.1,14,30.26,10.0,SSW,11.5,-,N/A,,Clear,210,2012-12-04 21:53:00
3:53 PM,54.0,10.9,18,30.26,10.0,South,11.5,-,N/A,,Clear,190,2012-12-04 22:53:00
4:53 PM,46.0,10.9,24,30.28,10.0,South,9.2,-,N/A,,Clear,190,2012-12-04 23:53:00
5:53 PM,36.0,9.0,33,30.28,10.0,South,10.4,-,N/A,,Clear,170,2012-12-05 00:53:00
6:53 PM,41.0,12.9,32,30.28,10.0,South,12.7,-,N/A,,Clear,190,2012-12-05 01:53:00
7:53 PM,42.1,15.1,34,30.26,10.0,South,13.8,-,N/A,,Clear,190,2012-12-05 02:53:00
8:53 PM,39.0,15.1,38,30.23,10.0,South,13.8,-,N/A,,Clear,190,2012-12-05 03:53:00
9:53 PM,35.1,16.0,46,30.22,10.0,South,12.7,-,N/A,,Clear,170,2012-12-05 04:53:00
10:53 PM,39.0,19.0,45,30.19,10.0,SSW,12.7,-,N/A,,Clear,200,2012-12-05 05:53:00
11:53 PM,39.9,21.0,47,30.17,10.0,SSW,10.4,-,N/A,,Clear,200,2012-12-05 06:53:00